Location: Akgöl Batakl???
(38.9482°N, 31.8837°E)
Time: 21:01:51
(UTC+00:00)

CZ-4 R/B - Pass Details

Date: 08 May 2026
Orbit: 491 x 534 km, 97.5° (Epoch: 8 June)

Event Time Altitude Azimuth Distance (km) Brightness Sun altitude
Exits shadow 18:18:04 - 190° (S) 1,797 3.7 -15.3°
Reaches altitude 10° 18:18:21 10° 192° (SSW) 1,686 3.5 -15.3°
Maximum altitude 18:21:45 38° 261° (W) 766 2.4 -15.8°
Drops below altitude 10° 18:25:09 10° 331° (NNW) 1,690 4.9 -16.3°
Sets 18:27:20 0° 340° (NNW) 2,576 5.8 -16.7°
